Flag for Australia Weather past 2 weeks in Canberra, Australian Capital Territory, Australia

Now
45 °F

Clear.


Feels Like: 43 °F
Forecast: 30 / 56 °F
Wind: 3 mph from North

Location: Canberra Airport

Current Time: May 23, 2015 at 5:59:38 PM

Latest Report: May 23, 2015 at 5:30 PM


Visibility: 10 mi

Pressure: 30.39 "Hg

Humidity: 66%

Dew point: 34 °F

Location of CanberraLocation

Historic Weather in Canberra — Graph

°F

Canberra temperature yesterday

Maximum temperature yesterday: 55 °F (at 1:00 PM)
Minimum temperature yesterday: 37 °F (at 11:30 PM)
Average temperature yesterday: 50 °F

Past Weeks' High & Low Weather Summary

 TemperatureHumidityPressure
High64 °F (May 17, 3:00 PM)100% (May 14, 5:30 AM)30.63 "Hg (May 14, 5:30 AM)
Low25 °F (May 14, 4:00 AM)28% (May 17, 4:00 PM)29.68 "Hg (May 10, 12:30 PM)
Average48 °F74%30.16 "Hg
* Reported May 8 4:00 PM — May 23 4:30 PM, Canberra, Weather by CustomWeather, © 2015

Note: Actual official high and low records may vary slightly from our data, if they occured in-between our weather recording intervals... More about our weather records

Advertising

Canberra weather history for previous 24 hours

 ConditionsComfort  
Time TempWeatherWind HumidityBarometerVisibility
4:30 PM
Sat, May 23
54 °FClear.9 mph54%30.36 "Hg10 mi
4:00 PM57 °FSunny.8 mph44%30.36 "Hg10 mi
3:30 PM59 °FSunny.7 mph36%30.36 "Hg10 mi
3:00 PM59 °FSunny.6 mph36%30.36 "Hg10 mi
2:30 PM59 °FSunny.6 mph36%30.36 "Hg10 mi
2:00 PM59 °FSunny.5 mph39%30.36 "Hg10 mi
1:30 PM55 °FSunny.7 mph41%30.36 "Hg10 mi
12:30 PM55 °FSunny.6 mph47%30.36 "Hg10 mi
12:00 PM54 °FSunny.5 mph51%30.39 "Hg10 mi
11:30 AM52 °FSunny.5 mph50%30.42 "Hg10 mi
11:00 AM50 °FSunny.2 mph62%30.42 "Hg10 mi
10:30 AM48 °FSunny.5 mph66%30.42 "Hg10 mi
10:00 AM46 °FSunny.5 mph76%30.45 "Hg10 mi
9:30 AM45 °FSunny.5 mph76%30.42 "Hg10 mi
9:00 AM41 °FSunny.6 mph81%30.42 "Hg10 mi
8:30 AM37 °FSunny.6 mph93%30.42 "Hg10 mi
8:00 AM32 °FSunny.2 mph93%30.42 "Hg10 mi
7:30 AM28 °FSunny.3 mph93%30.42 "Hg10 mi
7:00 AM28 °FSunny.3 mph93%30.42 "Hg10 mi
6:30 AM28 °FSunny.No wind93%30.39 "Hg10 mi
6:00 AM30 °FSunny.1 mph93%30.39 "Hg10 mi
5:30 AM28 °FClear.6 mph100%30.39 "HgN/A
5:00 AM28 °FClear.5 mph100%30.39 "HgN/A
4:30 AM30 °FClear.1 mph100%30.39 "HgN/A
4:00 AM30 °FClear.6 mph86%30.36 "HgN/A
3:30 AM32 °FClear.6 mph93%30.39 "HgN/A
3:00 AM32 °FClear.6 mph93%30.39 "HgN/A
2:30 AM32 °FClear.1 mph87%30.39 "HgN/A
2:00 AM37 °FClear.3 mph87%30.39 "HgN/A
1:30 AM34 °FClear.5 mph93%30.39 "HgN/A
1:00 AM32 °FClear.6 mph87%30.36 "HgN/A
12:30 AM37 °FClear.3 mph87%30.36 "HgN/A
12:00 AM39 °FClear.3 mph81%30.36 "HgN/A
11:30 PM
Fri, May 22
37 °FClear.1 mph81%30.36 "HgN/A
11:00 PM41 °FClear.7 mph76%30.36 "HgN/A
10:30 PM45 °FClear.10 mph71%30.36 "HgN/A
10:00 PM46 °FClear.12 mph71%30.33 "HgN/A
9:30 PM46 °FClear.9 mph71%30.33 "HgN/A
9:00 PM48 °FClear.16 mph71%30.33 "HgN/A
8:30 PM48 °FClear.14 mph71%30.33 "Hg10 mi
8:00 PM46 °FClear.10 mph76%30.33 "Hg10 mi
7:30 PM48 °FClear.9 mph71%30.33 "Hg10 mi
7:00 PM48 °FPassing clouds.9 mph71%30.30 "HgN/A
6:30 PM50 °FPassing clouds.10 mph67%30.30 "HgN/A
6:00 PM48 °FPassing clouds.7 mph71%30.27 "HgN/A
5:30 PM50 °FPassing clouds.8 mph67%30.27 "HgN/A
5:00 PM52 °FPassing clouds.10 mph62%30.27 "HgN/A
Weather by CustomWeather, © 2015

See weather overviewHow to use our weather pages